Time,TemperatureF,DewpointF,PressureIn,WindDirection,WindDirectionDegrees,WindSpeedMPH,WindSpeedGustMPH,Humidity,HourlyPrecipIn,Conditions,Clouds,dailyrainin,SolarRadiationWatts/m^2,SoftwareType,DateUTC
2013-05-16 00:04:00,55.7,51.0,30.00,North,355,4.0,4.0,83,0.00,,,0.00,0,weatherlink.com 1.10,2013-05-16 07:04:00,
2013-05-16 00:19:00,55.6,51.0,30.00,NE,41,2.0,7.0,83,0.00,,,0.00,0,weatherlink.com 1.10,2013-05-16 07:19:00,
2013-05-16 00:34:00,55.4,51.0,30.00,ENE,61,1.0,4.0,84,0.00,,,0.00,0,weatherlink.com 1.10,2013-05-16 07:34:00,
2013-05-16 00:49:00,55.5,50.0,29.99,NNW,344,3.0,4.0,83,0.00,,,0.00,0,weatherlink.com 1.10,2013-05-16 07:49:00,
2013-05-16 01:04:00,56.0,51.0,29.99,NNW,339,0.0,4.0,82,0.00,,,0.00,0,weatherlink.com 1.10,2013-05-16 08:04:00,
2013-05-16 01:19:00,56.2,51.0,29.99,NE,43,0.0,2.0,82,0.00,,,0.00,0,weatherlink.com 1.10,2013-05-16 08:19:00,
2013-05-16 01:34:00,56.2,51.0,29.99,North,350,0.0,3.0,82,0.00,,,0.00,0,weatherlink.com 1.10,2013-05-16 08:34:00,
2013-05-16 01:49:00,56.2,51.0,29.99,North,350,0.0,2.0,82,0.00,,,0.00,0,weatherlink.com 1.10,2013-05-16 08:49:00,
2013-05-16 02:04:00,56.4,51.0,29.98,North,350,0.0,2.0,83,0.00,,,0.00,0,weatherlink.com 1.10,2013-05-16 09:04:00,
2013-05-16 02:19:00,56.7,51.0,29.98,NE,38,0.0,1.0,82,0.00,,,0.00,0,weatherlink.com 1.10,2013-05-16 09:19:00,
2013-05-16 02:34:00,57.0,51.0,29.97,NNW,348,1.0,4.0,81,0.00,,,0.00,0,weatherlink.com 1.10,2013-05-16 09:34:00,
2013-05-16 02:50:00,57.1,51.0,29.97,ENE,61,1.0,3.0,81,0.00,,,0.00,0,weatherlink.com 1.10,2013-05-16 09:50:00,
2013-05-16 03:05:00,57.2,51.0,29.97,NW,312,0.0,4.0,81,0.00,,,0.00,0,weatherlink.com 1.10,2013-05-16 10:05:00,
2013-05-16 03:20:00,57.3,52.0,29.97,NW,312,0.0,2.0,81,0.00,,,0.00,0,weatherlink.com 1.10,2013-05-16 10:20:00,
2013-05-16 03:35:00,57.2,52.0,29.97,NW,312,1.0,3.0,82,0.00,,,0.00,0,weatherlink.com 1.10,2013-05-16 10:35:00,
2013-05-16 03:50:00,57.1,52.0,29.97,NW,317,0.0,3.0,83,0.00,,,0.00,0,weatherlink.com 1.10,2013-05-16 10:50:00,
2013-05-16 04:05:00,57.0,52.0,29.97,NW,317,1.0,3.0,84,0.00,,,0.00,0,weatherlink.com 1.10,2013-05-16 11:05:00,
2013-05-16 04:20:00,56.9,52.0,29.97,NW,317,3.0,4.0,84,0.00,,,0.00,0,weatherlink.com 1.10,2013-05-16 11:20:00,
2013-05-16 04:35:00,56.9,53.0,29.96,NW,317,1.0,3.0,85,0.00,,,0.00,0,weatherlink.com 1.10,2013-05-16 11:35:00,
2013-05-16 04:50:00,56.9,53.0,29.96,NW,317,1.0,2.0,85,0.00,,,0.00,0,weatherlink.com 1.10,2013-05-16 11:50:00,
2013-05-16 05:05:00,56.9,53.0,29.96,NW,317,1.0,2.0,85,0.00,,,0.00,0,weatherlink.com 1.10,2013-05-16 12:05:00,
2013-05-16 05:20:00,57.0,53.0,29.97,NW,317,1.0,3.0,85,0.00,,,0.00,0,weatherlink.com 1.10,2013-05-16 12:20:00,
2013-05-16 05:35:00,57.1,52.0,29.97,NW,317,0.0,3.0,84,0.00,,,0.00,0,weatherlink.com 1.10,2013-05-16 12:35:00,
2013-05-16 05:50:00,57.2,52.0,29.96,NW,317,0.0,4.0,84,0.00,,,0.00,0,weatherlink.com 1.10,2013-05-16 12:50:00,
2013-05-16 06:05:00,57.2,53.0,29.97,NW,317,0.0,2.0,85,0.00,,,0.00,0,weatherlink.com 1.10,2013-05-16 13:05:00,
2013-05-16 06:20:00,57.3,53.0,29.97,NW,321,0.0,4.0,84,0.00,,,0.00,0,weatherlink.com 1.10,2013-05-16 13:20:00,
2013-05-16 06:35:00,57.4,53.0,29.98,NW,321,2.0,2.0,84,0.00,,,0.00,11,weatherlink.com 1.10,2013-05-16 13:35:00,
2013-05-16 06:50:00,57.6,53.0,29.98,NNW,327,2.0,4.0,84,0.00,,,0.00,18,weatherlink.com 1.10,2013-05-16 13:50:00,
2013-05-16 07:05:00,57.5,53.0,29.99,NNW,327,3.0,4.0,85,0.00,,,0.00,18,weatherlink.com 1.10,2013-05-16 14:05:00,
2013-05-16 07:20:00,57.5,53.0,29.99,NW,315,0.0,4.0,86,0.00,,,0.00,23,weatherlink.com 1.10,2013-05-16 14:20:00,
2013-05-16 07:35:00,57.5,53.0,29.99,NW,321,2.0,4.0,86,0.00,,,0.00,26,weatherlink.com 1.10,2013-05-16 14:35:00,
2013-05-16 07:50:00,57.4,53.0,30.00,NNW,329,3.0,8.0,86,0.00,,,0.00,32,weatherlink.com 1.10,2013-05-16 14:50:00,
2013-05-16 08:05:00,57.3,54.0,30.00,North,350,4.0,5.0,87,0.00,,,0.00,63,weatherlink.com 1.10,2013-05-16 15:05:00,
2013-05-16 08:20:00,57.1,54.0,30.00,NNW,341,1.0,7.0,88,0.01,,,0.01,49,weatherlink.com 1.10,2013-05-16 15:20:00,
2013-05-16 08:35:00,57.3,54.0,30.00,NE,47,1.0,5.0,88,0.01,,,0.01,69,weatherlink.com 1.10,2013-05-16 15:35:00,
2013-05-16 08:50:00,57.3,54.0,30.00,NE,34,0.0,4.0,89,0.01,,,0.01,65,weatherlink.com 1.10,2013-05-16 15:50:00,
2013-05-16 09:05:00,57.3,54.0,30.00,NNE,32,0.0,3.0,89,0.01,,,0.01,83,weatherlink.com 1.10,2013-05-16 16:05:00,
2013-05-16 09:20:00,57.7,55.0,30.00,NNW,336,1.0,3.0,89,0.00,,,0.01,100,weatherlink.com 1.10,2013-05-16 16:20:00,
2013-05-16 09:35:00,58.1,55.0,30.00,NNW,336,0.0,3.0,89,0.00,,,0.01,109,weatherlink.com 1.10,2013-05-16 16:35:00,
2013-05-16 09:50:00,58.2,54.0,30.00,NNW,333,4.0,5.0,87,0.01,,,0.02,109,weatherlink.com 1.10,2013-05-16 16:50:00,
2013-05-16 10:05:00,58.5,55.0,30.00,NW,306,3.0,5.0,87,0.01,,,0.02,148,weatherlink.com 1.10,2013-05-16 17:05:00,
2013-05-16 10:20:00,58.8,55.0,30.00,West,274,0.0,6.0,87,0.01,,,0.02,165,weatherlink.com 1.10,2013-05-16 17:20:00,
2013-05-16 10:35:00,59.1,55.0,30.00,West,268,1.0,4.0,85,0.01,,,0.02,142,weatherlink.com 1.10,2013-05-16 17:35:00,
2013-05-16 10:50:00,59.7,56.0,30.00,NW,308,0.0,2.0,86,0.00,,,0.02,267,weatherlink.com 1.10,2013-05-16 17:50:00,
2013-05-16 11:05:00,60.2,55.0,30.00,NW,311,0.0,2.0,84,0.00,,,0.02,243,weatherlink.com 1.10,2013-05-16 18:05:00,
2013-05-16 11:20:00,61.1,56.0,29.99,NW,311,0.0,3.0,82,0.00,,,0.02,329,weatherlink.com 1.10,2013-05-16 18:20:00,
2013-05-16 11:35:00,61.4,56.0,29.99,NW,326,2.0,4.0,81,0.00,,,0.02,308,weatherlink.com 1.10,2013-05-16 18:35:00,
2013-05-16 11:50:00,62.0,55.0,29.99,NW,325,0.0,6.0,79,0.00,,,0.02,323,weatherlink.com 1.10,2013-05-16 18:50:00,
2013-05-16 12:05:00,62.9,56.0,29.99,NNW,327,5.0,7.0,77,0.00,,,0.02,338,weatherlink.com 1.10,2013-05-16 19:05:00,
2013-05-16 12:20:00,62.9,55.0,29.99,WNW,296,3.0,8.0,76,0.00,,,0.02,422,weatherlink.com 1.10,2013-05-16 19:20:00,
2013-05-16 12:35:00,64.4,56.0,29.98,NNW,327,6.0,8.0,74,0.00,,,0.02,548,weatherlink.com 1.10,2013-05-16 19:35:00,
2013-05-16 12:51:00,64.7,55.0,29.98,WNW,284,4.0,10.0,71,0.00,,,0.02,654,weatherlink.com 1.10,2013-05-16 19:51:00,
2013-05-16 13:06:00,65.1,55.0,29.97,NW,325,4.0,8.0,70,0.00,,,0.02,612,weatherlink.com 1.10,2013-05-16 20:06:00,
2013-05-16 13:21:00,66.5,56.0,29.97,WNW,292,7.0,7.0,68,0.00,,,0.02,881,weatherlink.com 1.10,2013-05-16 20:21:00,
2013-05-16 13:36:00,66.8,55.0,29.96,WSW,247,5.0,9.0,65,0.00,,,0.02,870,weatherlink.com 1.10,2013-05-16 20:36:00,
2013-05-16 13:51:00,67.0,54.0,29.96,NW,310,2.0,8.0,64,0.00,,,0.02,921,weatherlink.com 1.10,2013-05-16 20:51:00,
2013-05-16 14:06:00,67.6,56.0,29.96,NW,315,3.0,8.0,66,0.00,,,0.02,984,weatherlink.com 1.10,2013-05-16 21:06:00,
2013-05-16 14:21:00,68.6,55.0,29.96,WNW,286,8.0,11.0,62,0.00,,,0.02,916,weatherlink.com 1.10,2013-05-16 21:21:00,
2013-05-16 14:36:00,67.9,55.0,29.95,West,273,4.0,11.0,63,0.00,,,0.02,884,weatherlink.com 1.10,2013-05-16 21:36:00,
2013-05-16 14:51:00,67.7,53.0,29.95,NNW,327,11.0,11.0,60,0.00,,,0.02,875,weatherlink.com 1.10,2013-05-16 21:51:00,
2013-05-16 15:06:00,67.8,54.0,29.95,NW,316,2.0,11.0,61,0.00,,,0.02,882,weatherlink.com 1.10,2013-05-16 22:06:00,
2013-05-16 15:21:00,67.9,54.0,29.95,West,280,9.0,14.0,61,0.00,,,0.02,823,weatherlink.com 1.10,2013-05-16 22:21:00,
2013-05-16 15:36:00,68.2,54.0,29.95,West,281,7.0,13.0,60,0.00,,,0.02,814,weatherlink.com 1.10,2013-05-16 22:36:00,
2013-05-16 15:51:00,67.9,52.0,29.95,WNW,302,11.0,16.0,58,0.00,,,0.02,705,weatherlink.com 1.10,2013-05-16 22:51:00,
2013-05-16 16:06:00,66.9,52.0,29.95,NW,311,12.0,15.0,60,0.00,,,0.02,598,weatherlink.com 1.10,2013-05-16 23:06:00,
2013-05-16 16:21:00,67.2,52.0,29.94,WNW,302,7.0,12.0,58,0.00,,,0.02,935,weatherlink.com 1.10,2013-05-16 23:21:00,
2013-05-16 16:36:00,67.7,51.0,29.94,NW,323,6.0,13.0,56,0.00,,,0.02,844,weatherlink.com 1.10,2013-05-16 23:36:00,
2013-05-16 16:51:00,66.3,52.0,29.94,North,355,8.0,15.0,60,0.00,,,0.02,485,weatherlink.com 1.10,2013-05-16 23:51:00,
2013-05-16 17:06:00,66.0,51.0,29.94,NNW,343,5.0,14.0,59,0.00,,,0.02,538,weatherlink.com 1.10,2013-05-17 00:06:00,
2013-05-16 17:21:00,66.0,51.0,29.94,NNW,338,8.0,11.0,59,0.00,,,0.02,487,weatherlink.com 1.10,2013-05-17 00:21:00,
2013-05-16 17:36:00,65.7,51.0,29.94,NNW,340,11.0,14.0,59,0.00,,,0.02,438,weatherlink.com 1.10,2013-05-17 00:36:00,
2013-05-16 17:51:00,65.1,51.0,29.94,NNW,331,4.0,11.0,61,0.00,,,0.02,394,weatherlink.com 1.10,2013-05-17 00:51:00,
2013-05-16 18:06:00,64.0,51.0,29.94,NNW,335,8.0,15.0,62,0.00,,,0.02,345,weatherlink.com 1.10,2013-05-17 01:06:00,
2013-05-16 18:21:00,63.7,51.0,29.94,NW,309,6.0,11.0,63,0.00,,,0.02,299,weatherlink.com 1.10,2013-05-17 01:21:00,
2013-05-16 18:36:00,63.1,51.0,29.94,NNW,330,8.0,12.0,64,0.00,,,0.02,253,weatherlink.com 1.10,2013-05-17 01:36:00,
2013-05-16 18:51:00,62.7,51.0,29.94,NNW,339,5.0,12.0,66,0.00,,,0.02,199,weatherlink.com 1.10,2013-05-17 01:51:00,
2013-05-16 19:06:00,61.6,51.0,29.94,NW,315,6.0,12.0,69,0.00,,,0.02,144,weatherlink.com 1.10,2013-05-17 02:06:00,
2013-05-16 19:21:00,60.8,51.0,29.94,NNW,341,5.0,13.0,70,0.00,,,0.02,93,weatherlink.com 1.10,2013-05-17 02:21:00,
2013-05-16 19:36:00,60.2,51.0,29.94,NNW,330,3.0,11.0,72,0.00,,,0.02,44,weatherlink.com 1.10,2013-05-17 02:36:00,
2013-05-16 19:51:00,59.4,51.0,29.94,NNW,342,5.0,11.0,73,0.00,,,0.02,16,weatherlink.com 1.10,2013-05-17 02:51:00,
2013-05-16 20:06:00,58.6,51.0,29.95,NNW,343,8.0,8.0,76,0.00,,,0.02,7,weatherlink.com 1.10,2013-05-17 03:06:00,
2013-05-16 20:21:00,58.2,51.0,29.95,NNW,348,6.0,8.0,78,0.00,,,0.02,0,weatherlink.com 1.10,2013-05-17 03:21:00,
2013-05-16 20:36:00,58.0,51.0,29.95,NNW,329,5.0,8.0,78,0.00,,,0.02,0,weatherlink.com 1.10,2013-05-17 03:36:00,
2013-05-16 20:51:00,58.0,52.0,29.95,NNW,330,3.0,7.0,79,0.00,,,0.02,0,weatherlink.com 1.10,2013-05-17 03:51:00,
2013-05-16 21:06:00,57.9,51.0,29.96,WNW,300,1.0,5.0,79,0.00,,,0.02,0,weatherlink.com 1.10,2013-05-17 04:06:00,
2013-05-16 21:21:00,57.7,51.0,29.96,NW,314,4.0,5.0,78,0.00,,,0.02,0,weatherlink.com 1.10,2013-05-17 04:21:00,
2013-05-16 21:36:00,57.5,51.0,29.96,NW,319,5.0,6.0,78,0.00,,,0.02,0,weatherlink.com 1.10,2013-05-17 04:36:00,
2013-05-16 21:51:00,57.3,51.0,29.97,NW,308,2.0,7.0,78,0.00,,,0.02,0,weatherlink.com 1.10,2013-05-17 04:51:00,
2013-05-16 22:06:00,57.0,51.0,29.97,NW,308,4.0,7.0,79,0.00,,,0.02,0,weatherlink.com 1.10,2013-05-17 05:06:00,
2013-05-16 22:21:00,56.9,50.0,29.97,WNW,300,1.0,6.0,79,0.00,,,0.02,0,weatherlink.com 1.10,2013-05-17 05:21:00,
2013-05-16 22:36:00,56.7,50.0,29.97,NW,317,4.0,6.0,79,0.00,,,0.02,0,weatherlink.com 1.10,2013-05-17 05:36:00,
2013-05-16 22:51:00,56.6,50.0,29.97,NW,323,2.0,5.0,79,0.00,,,0.02,0,weatherlink.com 1.10,2013-05-17 05:51:00,
2013-05-16 23:06:00,56.7,51.0,29.97,NW,316,1.0,5.0,80,0.00,,,0.02,0,weatherlink.com 1.10,2013-05-17 06:06:00,
2013-05-16 23:21:00,56.7,50.0,29.97,NNW,327,7.0,8.0,78,0.00,,,0.02,0,weatherlink.com 1.10,2013-05-17 06:21:00,
2013-05-16 23:36:00,56.4,50.0,29.97,NW,315,1.0,6.0,78,0.00,,,0.02,0,weatherlink.com 1.10,2013-05-17 06:36:00,
2013-05-16 23:51:00,56.0,49.0,29.97,NNW,329,0.0,5.0,78,0.00,,,0.02,0,weatherlink.com 1.10,2013-05-17 06:51:00,